Location: Les Martinières
(47.2667°N, 1.4410°E)
Time: 23:36:55
(UTC+00:00)

Cosmos 2219 Rocket - Pass Details

Date: 15 May 2026
Orbit: 825 x 846 km, 71.0° (Epoch: 9 June)

Event Time Altitude Azimuth Distance (km) Brightness Sun altitude
Rises 20:13:55 0° 338° (NNW) 3,403 6.6 -7.8°
Reaches altitude 10° 20:16:57 10° 354° (N) 2,469 5.4 -8.2°
Maximum altitude 20:21:16 22° 44° (NE) 1,778 3.9 -8.8°
Drops below altitude 10° 20:25:35 10° 94° (E) 2,467 4.2 -9.3°
Enters shadow 20:26:32 - 100° (E) 2,739 4.3 -9.4°
